Terminal Aerodrome Forecast
Issued by NWS Blacksburg, VA

Home | Current Version | Previous Version | Text Only | Print | Product List | Glossary On
Versions: 1 2 3 4 5 6 7 8 9 10 11 12 13 14 15 16 17 18 19 20 21 22 23 24 25 26 27 28 29 30 31 32
000
FTUS41 KRNK 240523
TAFROA
TAF
KROA 240523Z 2406/2506 12004KT P6SM SCT080 OVC140
     FM241600 05008KT P6SM OVC080
     FM242000 07008KT P6SM -RA OVC050
     FM242200 07008KT 6SM -RA OVC030
     FM250300 01006KT P6SM OVC015=

USA.gov is the U.S. government's official web portal to all federal, state and local government web resources and services.